Regional Weather Roundup
Issued by NWS

Home | Current Version | Previous Version | Graphics & Text | Print | Product List | Glossary On
Versions: 1 2 3 4 5 6 7 8 9 10 11 12 13 14 15 16 17 18 19 20 21 22 23 24 25 26 27 28 29 30 31 32 33 34 35 36 37 38 39 40 41 42 43 44 45 46 47 48 49 50
634
ASUS43 KMKX 230500
RWRWI

WISCONSIN REGIONAL WEATHER ROUNDUP
NATIONAL WEATHER SERVICE MILWAUKEE/SULLIVAN WI
1200 AM CDT THU MAR 23 2017

NOTE: "FAIR" INDICATES FEW OR NO CLOUDS BELOW 12,000 FEET WITH NO
SIGNIFICANT WEATHER AND/OR OBSTRUCTIONS TO VISIBILITY.

WIZ001-002-006>008-014>016-023>028-230600-
NORTHWEST WISCONSIN

CITY           SKY/WX    TMP DP  RH WIND       PRES   REMARKS
SUPERIOR ARPT  CLOUDY    30  22  73 CALM      30.33F
ASHLAND        MOCLDY    24  21  88 CALM      30.35F
HAYWARD        CLOUDY    34  11  38 S8        30.31F WCI  27
SIREN          CLOUDY    34  10  36 S7        30.30F WCI  28
CUMBERLAND     CLOUDY    32  10  40 SE7       30.30F WCI  26
RICE LAKE      CLOUDY    33  10  38 SE9       30.34S WCI  26
CHETEK         CLOUDY    33  11  40 SE9       30.33F WCI  25
LADYSMITH      CLOUDY    32  14  47 SE7       30.35F WCI  26
EAU CLAIRE     NOT AVBL
MENOMONIE      CLOUDY    35  15  44 E6        30.32F WCI  30
NEW RICHMOND   CLOUDY    35  10  36 SE8       30.30F WCI  28
OSCEOLA        CLOUDY    36  13  39 SE10G16   30.32F WCI  28
$$

WIZ003>005-009-010-017-018-230600-
NORTH CENTRAL WISCONSIN

CITY           SKY/WX    TMP DP  RH WIND       PRES   REMARKS
MANITOWISH WTR PTCLDY    24   9  52 S7        30.35F WCI  16
ARBOR VITAE    CLEAR     27   9  47 S6        30.35F WCI  21
WOODRUFF       CLEAR     27   9  47 S6        30.35F WCI  21
RHINELANDER    CLEAR     27  13  55 SE5       30.38F WCI  22
EAGLE RIVER    CLOUDY    25   9  50 S5        30.37S WCI  19
LAND O LAKES   CLOUDY    27   8  46 S7        30.38S WCI  19
PHILLIPS       CLOUDY    28  11  49 SE8       30.34F WCI  20
TOMAHAWK       CLEAR     25  11  55 SE3       30.38F
MEDFORD        CLOUDY    28  15  58 SE5       30.35F WCI  23
MERRILL        PTCLDY    26  13  57 SE7       30.40S WCI  19
$$

WIZ029-030-035-036-043>047-230600-
CENTRAL WISCONSIN

CITY           SKY/WX    TMP DP  RH WIND       PRES   REMARKS
WAUSAU         MOCLDY    27  15  61 SE8       30.38F WCI  19
MOSINEE        CLOUDY    28  18  64 SE7       30.40F WCI  21
MARSHFIELD     CLOUDY    29  16  58 SE12      30.36F WCI  19
STEVENS POINT  CLOUDY    26  17  71 SE8       30.42S WCI  17
WAUPACA        CLEAR     27  22  80 E9        30.46S WCI  18
WAUTOMA        PTCLDY    26  20  77 E7        30.43F WCI  18
WISC RAPIDS    MOCLDY    28  19  69 SE9       30.41F WCI  19
CAMP DOUGLAS   NOT AVBL
$$

WIZ011>013-019>022-031-037>040-048>050-230600-
NORTHEAST WISCONSIN

CITY           SKY/WX    TMP DP  RH WIND       PRES   REMARKS
ANTIGO         CLEAR     24  14  66 SE9       30.40F WCI  14
SHAWANO        CLEAR     26  20  79 SE3       30.47F
OCONTO         CLEAR     23  17  78 CALM      30.49F
STURGEON BAY   CLEAR     23  17  78 S5        30.49F WCI  17
GREEN BAY      CLEAR     25  20  81 SE5       30.49S WCI  19
MANITOWOC      NOT AVBL
APPLETON       CLEAR     27  18  69 SE6       30.45S WCI  20
CLINTONVILLE   CLEAR     27  19  74 SE6       30.46F WCI  20
OSHKOSH        CLEAR     24  18  77 SE7       30.47S WCI  16
$$

WIZ032>034-041-042-053>061-230600-
SOUTHWEST WISCONSIN

CITY           SKY/WX    TMP DP  RH WIND       PRES   REMARKS
LA CROSSE      CLOUDY    38  15  39 SE10      30.35F WCI  31
SPARTA         CLOUDY    32  16  52 SE3       30.38F
VIROQUA        CLOUDY    33  17  52 SE10      30.34S WCI  25
BOSCOBEL       CLOUDY    36  19  50 SE3       30.39S
PRAIRIE DU CHI CLOUDY    37  17  44 SE5       30.36S WCI  34
PLATTEVILLE    CLOUDY    33  23  66 E12       30.37F WCI  25
$$

WIZ056-057-062-063-064-067-068-230600-
SOUTH CENTRAL WISCONSIN

CITY           SKY/WX    TMP DP  RH WIND       PRES   REMARKS
REEDSBURG      CLOUDY    31  22  67 SE6       30.39F WCI  25
BARABOO/DELLS  CLOUDY    29  20  69 SE8       30.40F WCI  22
LONE ROCK      NOT AVBL
MINERAL POINT  CLOUDY    32  21  64 SE15      30.37F WCI  22
MADISON        CLEAR     26  19  74 SE10      30.42F WCI  16
MIDDLETON      PTCLDY    30  21  70 SE15      30.42F WCI  19
WATERTOWN      CLEAR     24  19  82 E6        30.46F WCI  17
MONROE         CLOUDY    28  19  69 E8        30.41S WCI  20
JANESVILLE     CLOUDY    28  21  74 SE8       30.45S WCI  20
$$

WIZ051-052-058>065-066-070>072-230600-
SOUTHEAST WISCONSIN

CITY           SKY/WX    TMP DP  RH WIND       PRES   REMARKS
MILWAUKEE      CLEAR     26  17  68 CALM      30.49R
WAUKESHA       CLOUDY    21  18  86 E6        30.49S WCI  14
MILWAUKEE/TIMM CLEAR     25  16  68 CALM      30.50R
RACINE         CLEAR     23  17  78 CALM      30.50S
KENOSHA        CLEAR     22  18  85 CALM      30.48S
FOND DU LAC    CLEAR     25  17  72 SE6       30.47S WCI  18
SHEBOYGAN      CLEAR     22  17  81 CALM      30.49S
WEST BEND      CLEAR     21  19  93 CALM      30.48S
JUNEAU         CLEAR     25  19  80 E8        30.47S WCI  16
$$

LSZ147-162-230600-
LAKE SUPERIOR

STATION/POSITION TIME  TEMP    WIND        PRES    WAVE
                       AIR SEA DIR/SP/G            HT/PER
                 (UTC) (F)     (DEG/KT/KT) (MB)    (FT/S)
DEVILS ISLAND    0400   30     110/  9/ 11 1029.6F
PORT WING        0440   30     150/  2/  5 1027.4F
SAXON HARBOR     0440   24      CALM  /  3 1027.8F
$$

LMZ867-665-643>646-230600-
LAKE MICHIGAN

STATION/POSITION TIME  TEMP    WIND        PRES    WAVE
                       AIR SEA DIR/SP/G            HT/PER
                 (UTC) (F)     (DEG/KT/KT) (MB)    (FT/S)
CHAMBERS ISLAND  0430   23     150/  2/  4 1031.8F
NORTHPORT PIER   0440   24      CALM  /  4 1032.5S
SISTER BAY       0305   23     170/  5/  8   N/A
KEWAUNEE LAKESHO 0430   28     170/  7/  9 1032.1F
SHEBOYGAN LAKESH 0400   28     150/  6/  7 1033.4F
PORT WASHINGTON  0440   29     130/  5/  7 1033.5R
MILWAUKEE LAKESH 0430   29     150/  3/  4   N/A
KENOSHA   LAKESH 0400   30     140/  8/  8 1032.2
$$

TC  - TEMPERATURE IN CELSIUS
VSB - VISIBILITY IN STATUTE MILES
WCI - WIND CHILL INDEX
HX  - HEAT INDEX





USA.gov is the U.S. government's official web portal to all federal, state and local government web resources and services.